Time,TemperatureF,DewpointF,PressureIn,WindDirection,WindDirectionDegrees,WindSpeedMPH,WindSpeedGustMPH,Humidity,HourlyPrecipIn,Conditions,Clouds,dailyrainin,SoftwareType,DateUTC
2013-05-30 00:07:00,52.7,51.8,29.48,North,-999,-999.0,-999.0,97,-99.99,,,-99.99,meteohub,2013-05-29 23:07:00,
2013-05-30 00:12:00,52.7,51.8,29.48,North,-999,-999.0,-999.0,97,-99.99,,,-99.99,meteohub,2013-05-29 23:12:00,
2013-05-30 00:17:00,52.5,51.6,29.48,North,-999,-999.0,-999.0,97,-99.99,,,-99.99,meteohub,2013-05-29 23:17:00,
2013-05-30 00:22:00,52.3,51.4,29.48,North,-999,-999.0,-999.0,97,-99.99,,,-99.99,meteohub,2013-05-29 23:22:00,
2013-05-30 00:27:00,52.2,51.3,29.48,North,-999,-999.0,-999.0,97,-99.99,,,-99.99,meteohub,2013-05-29 23:27:00,
2013-05-30 00:32:00,52.3,51.4,29.48,North,-999,-999.0,-999.0,97,-99.99,,,-99.99,meteohub,2013-05-29 23:32:00,
2013-05-30 00:37:00,52.3,51.4,29.48,North,-999,-999.0,-999.0,97,-99.99,,,-99.99,meteohub,2013-05-29 23:37:00,
2013-05-30 00:42:00,52.3,51.4,29.48,North,-999,-999.0,-999.0,97,-99.99,,,-99.99,meteohub,2013-05-29 23:42:00,
2013-05-30 00:47:00,52.5,51.6,29.48,North,-999,-999.0,-999.0,97,-99.99,,,-99.99,meteohub,2013-05-29 23:47:00,
2013-05-30 00:52:00,52.5,51.6,29.48,North,-999,-999.0,-999.0,97,-99.99,,,-99.99,meteohub,2013-05-29 23:52:00,
2013-05-30 00:57:00,52.3,51.4,29.48,North,-999,-999.0,-999.0,97,-99.99,,,-99.99,meteohub,2013-05-29 23:57:00,
2013-05-30 01:02:00,52.3,51.4,29.48,North,-999,-999.0,-999.0,97,-99.99,,,-99.99,meteohub,2013-05-30 00:02:00,
2013-05-30 01:07:00,52.3,51.4,29.48,North,-999,-999.0,-999.0,97,-99.99,,,-99.99,meteohub,2013-05-30 00:07:00,
2013-05-30 01:12:00,52.3,51.4,29.48,North,-999,-999.0,-999.0,97,-99.99,,,-99.99,meteohub,2013-05-30 00:12:00,
2013-05-30 01:17:00,52.5,51.6,29.48,North,-999,-999.0,-999.0,97,-99.99,,,-99.99,meteohub,2013-05-30 00:17:00,
2013-05-30 01:22:00,52.5,51.6,29.48,North,-999,-999.0,-999.0,97,-99.99,,,-99.99,meteohub,2013-05-30 00:22:00,
2013-05-30 01:27:00,52.5,51.6,29.48,North,-999,-999.0,-999.0,97,-99.99,,,-99.99,meteohub,2013-05-30 00:27:00,
2013-05-30 01:32:00,52.7,51.8,29.48,North,-999,-999.0,-999.0,97,-99.99,,,-99.99,meteohub,2013-05-30 00:32:00,
2013-05-30 01:37:00,52.7,51.8,29.48,North,-999,-999.0,-999.0,97,-99.99,,,-99.99,meteohub,2013-05-30 00:37:00,
2013-05-30 01:42:00,52.7,52.2,29.48,North,-999,-999.0,-999.0,98,-99.99,,,-99.99,meteohub,2013-05-30 00:42:00,
2013-05-30 01:47:00,52.7,52.2,29.48,North,-999,-999.0,-999.0,98,-99.99,,,-99.99,meteohub,2013-05-30 00:47:00,
2013-05-30 01:52:00,52.5,52.0,29.48,North,-999,-999.0,-999.0,98,-99.99,,,-99.99,meteohub,2013-05-30 00:52:00,
2013-05-30 01:57:00,52.5,52.0,29.48,North,-999,-999.0,-999.0,98,-99.99,,,-99.99,meteohub,2013-05-30 00:57:00,
2013-05-30 02:02:00,52.5,52.0,29.48,North,-999,-999.0,-999.0,98,-99.99,,,-99.99,meteohub,2013-05-30 01:02:00,
2013-05-30 02:07:00,52.3,51.8,29.48,North,-999,-999.0,-999.0,98,-99.99,,,-99.99,meteohub,2013-05-30 01:07:00,
2013-05-30 02:12:00,52.3,51.8,29.48,North,-999,-999.0,-999.0,98,-99.99,,,-99.99,meteohub,2013-05-30 01:12:00,
2013-05-30 02:17:00,52.3,51.8,29.48,North,-999,-999.0,-999.0,98,-99.99,,,-99.99,meteohub,2013-05-30 01:17:00,
2013-05-30 02:22:00,52.3,51.8,29.48,North,-999,-999.0,-999.0,98,-99.99,,,-99.99,meteohub,2013-05-30 01:22:00,
2013-05-30 02:27:00,52.3,51.8,29.48,North,-999,-999.0,-999.0,98,-99.99,,,-99.99,meteohub,2013-05-30 01:27:00,
2013-05-30 02:32:00,52.3,51.8,29.48,North,-999,-999.0,-999.0,98,-99.99,,,-99.99,meteohub,2013-05-30 01:32:00,
2013-05-30 02:37:00,52.3,51.8,29.48,North,-999,-999.0,-999.0,98,-99.99,,,-99.99,meteohub,2013-05-30 01:37:00,
2013-05-30 02:42:00,52.2,51.6,29.48,North,-999,-999.0,-999.0,98,-99.99,,,-99.99,meteohub,2013-05-30 01:42:00,
2013-05-30 02:47:00,52.2,51.6,29.48,North,-999,-999.0,-999.0,98,-99.99,,,-99.99,meteohub,2013-05-30 01:47:00,
2013-05-30 02:52:00,52.2,51.6,29.48,North,-999,-999.0,-999.0,98,-99.99,,,-99.99,meteohub,2013-05-30 01:52:00,
2013-05-30 02:57:00,52.2,51.6,29.48,North,-999,-999.0,-999.0,98,-99.99,,,-99.99,meteohub,2013-05-30 01:57:00,
2013-05-30 03:02:00,52.2,51.6,29.48,North,-999,-999.0,-999.0,98,-99.99,,,-99.99,meteohub,2013-05-30 02:02:00,
2013-05-30 03:07:00,52.2,51.6,29.48,North,-999,-999.0,-999.0,98,-99.99,,,-99.99,meteohub,2013-05-30 02:07:00,
2013-05-30 03:12:00,52.0,51.4,29.48,North,-999,-999.0,-999.0,98,-99.99,,,-99.99,meteohub,2013-05-30 02:12:00,
2013-05-30 03:17:00,52.0,51.4,29.48,North,-999,-999.0,-999.0,98,-99.99,,,-99.99,meteohub,2013-05-30 02:17:00,
2013-05-30 03:22:00,52.0,51.4,29.48,North,-999,-999.0,-999.0,98,-99.99,,,-99.99,meteohub,2013-05-30 02:22:00,
2013-05-30 03:27:00,51.8,51.3,29.48,North,-999,-999.0,-999.0,98,-99.99,,,-99.99,meteohub,2013-05-30 02:27:00,
2013-05-30 03:32:00,51.8,51.3,29.48,North,-999,-999.0,-999.0,98,-99.99,,,-99.99,meteohub,2013-05-30 02:32:00,
2013-05-30 03:37:00,51.8,51.3,29.48,North,-999,-999.0,-999.0,98,-99.99,,,-99.99,meteohub,2013-05-30 02:37:00,
2013-05-30 03:42:00,51.8,51.3,29.48,North,-999,-999.0,-999.0,98,-99.99,,,-99.99,meteohub,2013-05-30 02:42:00,
2013-05-30 03:47:00,51.6,51.1,29.48,North,-999,-999.0,-999.0,98,-99.99,,,-99.99,meteohub,2013-05-30 02:47:00,
2013-05-30 03:52:00,51.6,51.1,29.48,North,-999,-999.0,-999.0,98,-99.99,,,-99.99,meteohub,2013-05-30 02:52:00,
2013-05-30 03:57:00,51.6,51.1,29.48,North,-999,-999.0,-999.0,98,-99.99,,,-99.99,meteohub,2013-05-30 02:57:00,
2013-05-30 04:02:00,51.6,51.1,29.48,North,-999,-999.0,-999.0,98,-99.99,,,-99.99,meteohub,2013-05-30 03:02:00,
2013-05-30 04:07:00,51.4,50.9,29.48,North,-999,-999.0,-999.0,98,-99.99,,,-99.99,meteohub,2013-05-30 03:07:00,
2013-05-30 04:12:00,51.4,50.9,29.48,North,-999,-999.0,-999.0,98,-99.99,,,-99.99,meteohub,2013-05-30 03:12:00,
2013-05-30 04:17:00,51.4,50.9,29.48,North,-999,-999.0,-999.0,98,-99.99,,,-99.99,meteohub,2013-05-30 03:17:00,
2013-05-30 04:22:00,51.4,50.9,29.48,North,-999,-999.0,-999.0,98,-99.99,,,-99.99,meteohub,2013-05-30 03:22:00,
2013-05-30 04:27:00,51.4,50.9,29.48,North,-999,-999.0,-999.0,98,-99.99,,,-99.99,meteohub,2013-05-30 03:27:00,
2013-05-30 04:32:00,51.4,50.9,29.48,North,-999,-999.0,-999.0,98,-99.99,,,-99.99,meteohub,2013-05-30 03:32:00,
2013-05-30 04:37:00,51.4,50.9,29.48,North,-999,-999.0,-999.0,98,-99.99,,,-99.99,meteohub,2013-05-30 03:37:00,
2013-05-30 04:42:00,51.3,50.7,29.48,North,-999,-999.0,-999.0,98,-99.99,,,-99.99,meteohub,2013-05-30 03:42:00,
2013-05-30 04:47:00,51.3,50.7,29.48,North,-999,-999.0,-999.0,98,-99.99,,,-99.99,meteohub,2013-05-30 03:47:00,
2013-05-30 04:52:00,51.3,50.7,29.48,North,-999,-999.0,-999.0,98,-99.99,,,-99.99,meteohub,2013-05-30 03:52:00,
2013-05-30 04:57:00,51.1,50.5,29.48,North,-999,-999.0,-999.0,98,-99.99,,,-99.99,meteohub,2013-05-30 03:57:00,
2013-05-30 05:02:00,51.1,50.5,29.48,North,-999,-999.0,-999.0,98,-99.99,,,-99.99,meteohub,2013-05-30 04:02:00,
2013-05-30 05:07:00,51.1,50.5,29.48,North,-999,-999.0,-999.0,98,-99.99,,,-99.99,meteohub,2013-05-30 04:07:00,
2013-05-30 05:12:00,51.1,50.5,29.48,North,-999,-999.0,-999.0,98,-99.99,,,-99.99,meteohub,2013-05-30 04:12:00,
2013-05-30 05:17:00,51.1,50.5,29.48,North,-999,-999.0,-999.0,98,-99.99,,,-99.99,meteohub,2013-05-30 04:17:00,
2013-05-30 05:22:00,51.1,50.5,29.45,North,-999,-999.0,-999.0,98,-99.99,,,-99.99,meteohub,2013-05-30 04:22:00,
2013-05-30 05:27:00,51.1,50.5,29.45,North,-999,-999.0,-999.0,98,-99.99,,,-99.99,meteohub,2013-05-30 04:27:00,
2013-05-30 05:32:00,51.1,50.5,29.45,North,-999,-999.0,-999.0,98,-99.99,,,-99.99,meteohub,2013-05-30 04:32:00,
2013-05-30 05:37:00,51.1,50.5,29.45,North,-999,-999.0,-999.0,98,-99.99,,,-99.99,meteohub,2013-05-30 04:37:00,
2013-05-30 05:42:00,51.1,50.5,29.45,North,-999,-999.0,-999.0,98,-99.99,,,-99.99,meteohub,2013-05-30 04:42:00,
2013-05-30 05:47:00,51.1,50.5,29.45,North,-999,-999.0,-999.0,98,-99.99,,,-99.99,meteohub,2013-05-30 04:47:00,
2013-05-30 05:52:00,51.1,50.5,29.45,North,-999,-999.0,-999.0,98,-99.99,,,-99.99,meteohub,2013-05-30 04:52:00,
2013-05-30 05:57:00,51.1,50.5,29.45,North,-999,-999.0,-999.0,98,-99.99,,,-99.99,meteohub,2013-05-30 04:57:00,
2013-05-30 06:02:00,51.1,50.5,29.45,North,-999,-999.0,-999.0,98,-99.99,,,-99.99,meteohub,2013-05-30 05:02:00,
2013-05-30 06:07:00,51.3,50.7,29.45,North,-999,-999.0,-999.0,98,-99.99,,,-99.99,meteohub,2013-05-30 05:07:00,
2013-05-30 06:12:00,51.3,50.7,29.45,North,-999,-999.0,-999.0,98,-99.99,,,-99.99,meteohub,2013-05-30 05:12:00,
2013-05-30 06:17:00,51.3,50.7,29.45,North,-999,-999.0,-999.0,98,-99.99,,,-99.99,meteohub,2013-05-30 05:17:00,
2013-05-30 06:22:00,51.3,50.7,29.48,North,-999,-999.0,-999.0,98,-99.99,,,-99.99,meteohub,2013-05-30 05:22:00,
2013-05-30 06:27:00,51.3,50.7,29.48,North,-999,-999.0,-999.0,98,-99.99,,,-99.99,meteohub,2013-05-30 05:27:00,
2013-05-30 06:32:00,51.4,50.9,29.48,North,-999,-999.0,-999.0,98,-99.99,,,-99.99,meteohub,2013-05-30 05:32:00,
2013-05-30 06:37:00,51.4,50.9,29.48,North,-999,-999.0,-999.0,98,-99.99,,,-99.99,meteohub,2013-05-30 05:37:00,
2013-05-30 06:42:00,51.6,51.1,29.48,North,-999,-999.0,-999.0,98,-99.99,,,-99.99,meteohub,2013-05-30 05:42:00,
2013-05-30 06:47:00,51.8,51.3,29.48,North,-999,-999.0,-999.0,98,-99.99,,,-99.99,meteohub,2013-05-30 05:47:00,
2013-05-30 06:52:00,52.2,51.6,29.48,North,-999,-999.0,-999.0,98,-99.99,,,-99.99,meteohub,2013-05-30 05:52:00,
2013-05-30 06:57:00,52.5,52.0,29.48,North,-999,-999.0,-999.0,98,-99.99,,,-99.99,meteohub,2013-05-30 05:57:00,
2013-05-30 07:02:00,52.7,52.2,29.48,North,-999,-999.0,-999.0,98,-99.99,,,-99.99,meteohub,2013-05-30 06:02:00,
2013-05-30 07:07:00,53.1,52.5,29.48,North,-999,-999.0,-999.0,98,-99.99,,,-99.99,meteohub,2013-05-30 06:07:00,
2013-05-30 07:12:00,53.1,52.5,29.48,North,-999,-999.0,-999.0,98,-99.99,,,-99.99,meteohub,2013-05-30 06:12:00,
2013-05-30 07:17:00,53.1,52.5,29.48,North,-999,-999.0,-999.0,98,-99.99,,,-99.99,meteohub,2013-05-30 06:17:00,
2013-05-30 07:22:00,52.9,52.3,29.48,North,-999,-999.0,-999.0,98,-99.99,,,-99.99,meteohub,2013-05-30 06:22:00,
2013-05-30 07:27:00,53.1,52.5,29.48,North,-999,-999.0,-999.0,98,-99.99,,,-99.99,meteohub,2013-05-30 06:27:00,
2013-05-30 07:32:00,52.9,52.3,29.48,North,-999,-999.0,-999.0,98,-99.99,,,-99.99,meteohub,2013-05-30 06:32:00,
2013-05-30 07:37:00,52.5,52.0,29.48,North,-999,-999.0,-999.0,98,-99.99,,,-99.99,meteohub,2013-05-30 06:37:00,
2013-05-30 07:42:00,53.1,52.5,29.48,North,-999,-999.0,-999.0,98,-99.99,,,-99.99,meteohub,2013-05-30 06:42:00,
2013-05-30 07:47:00,52.9,52.3,29.48,North,-999,-999.0,-999.0,98,-99.99,,,-99.99,meteohub,2013-05-30 06:47:00,
2013-05-30 07:52:00,52.7,52.2,29.48,North,-999,-999.0,-999.0,98,-99.99,,,-99.99,meteohub,2013-05-30 06:52:00,
2013-05-30 07:57:00,52.5,52.0,29.48,North,-999,-999.0,-999.0,98,-99.99,,,-99.99,meteohub,2013-05-30 06:57:00,
2013-05-30 08:07:00,52.3,51.8,29.48,North,-999,-999.0,-999.0,98,-99.99,,,-99.99,meteohub,2013-05-30 07:07:00,
2013-05-30 08:12:00,52.3,51.8,29.48,North,-999,-999.0,-999.0,98,-99.99,,,-99.99,meteohub,2013-05-30 07:12:00,
2013-05-30 08:17:00,52.5,52.0,29.48,North,-999,-999.0,-999.0,98,-99.99,,,-99.99,meteohub,2013-05-30 07:17:00,
2013-05-30 08:22:00,52.7,52.2,29.48,North,-999,-999.0,-999.0,98,-99.99,,,-99.99,meteohub,2013-05-30 07:22:00,
2013-05-30 08:27:00,53.1,52.5,29.48,North,-999,-999.0,-999.0,98,-99.99,,,-99.99,meteohub,2013-05-30 07:27:00,
2013-05-30 08:32:00,53.8,53.2,29.48,North,-999,-999.0,-999.0,98,-99.99,,,-99.99,meteohub,2013-05-30 07:32:00,
2013-05-30 08:37:00,53.8,53.2,29.51,North,-999,-999.0,-999.0,98,-99.99,,,-99.99,meteohub,2013-05-30 07:37:00,
2013-05-30 08:42:00,53.4,52.9,29.51,North,-999,-999.0,-999.0,98,-99.99,,,-99.99,meteohub,2013-05-30 07:42:00,
2013-05-30 08:47:00,53.1,52.5,29.51,North,-999,-999.0,-999.0,98,-99.99,,,-99.99,meteohub,2013-05-30 07:47:00,
2013-05-30 08:52:00,52.9,52.3,29.51,North,-999,-999.0,-999.0,98,-99.99,,,-99.99,meteohub,2013-05-30 07:52:00,
2013-05-30 08:57:00,52.7,52.2,29.51,North,-999,-999.0,-999.0,98,-99.99,,,-99.99,meteohub,2013-05-30 07:57:00,
2013-05-30 09:02:00,52.9,52.3,29.51,North,-999,-999.0,-999.0,98,-99.99,,,-99.99,meteohub,2013-05-30 08:02:00,
2013-05-30 09:07:00,52.7,52.2,29.51,North,-999,-999.0,-999.0,98,-99.99,,,-99.99,meteohub,2013-05-30 08:07:00,
2013-05-30 09:12:00,52.3,51.8,29.51,North,-999,-999.0,-999.0,98,-99.99,,,-99.99,meteohub,2013-05-30 08:12:00,
2013-05-30 09:17:00,52.5,52.0,29.51,North,-999,-999.0,-999.0,98,-99.99,,,-99.99,meteohub,2013-05-30 08:17:00,
2013-05-30 09:22:00,52.9,52.3,29.51,North,-999,-999.0,-999.0,98,-99.99,,,-99.99,meteohub,2013-05-30 08:22:00,
2013-05-30 09:27:00,52.9,52.3,29.51,North,-999,-999.0,-999.0,98,-99.99,,,-99.99,meteohub,2013-05-30 08:27:00,
2013-05-30 09:32:00,53.4,52.9,29.51,North,-999,-999.0,-999.0,98,-99.99,,,-99.99,meteohub,2013-05-30 08:32:00,
2013-05-30 09:37:00,53.6,53.1,29.54,North,-999,-999.0,-999.0,98,-99.99,,,-99.99,meteohub,2013-05-30 08:37:00,
2013-05-30 09:42:00,53.8,53.2,29.54,North,-999,-999.0,-999.0,98,-99.99,,,-99.99,meteohub,2013-05-30 08:42:00,
2013-05-30 09:47:00,54.0,53.4,29.54,North,-999,-999.0,-999.0,98,-99.99,,,-99.99,meteohub,2013-05-30 08:47:00,
2013-05-30 09:52:00,53.6,53.1,29.54,North,-999,-999.0,-999.0,98,-99.99,,,-99.99,meteohub,2013-05-30 08:52:00,
2013-05-30 09:57:00,53.6,53.1,29.54,North,-999,-999.0,-999.0,98,-99.99,,,-99.99,meteohub,2013-05-30 08:57:00,
2013-05-30 10:02:00,53.8,53.2,29.54,North,-999,-999.0,-999.0,98,-99.99,,,-99.99,meteohub,2013-05-30 09:02:00,
2013-05-30 10:07:00,54.0,53.4,29.54,North,-999,-999.0,-999.0,98,-99.99,,,-99.99,meteohub,2013-05-30 09:07:00,
2013-05-30 10:12:00,54.0,53.1,29.54,North,-999,-999.0,-999.0,97,-99.99,,,-99.99,meteohub,2013-05-30 09:12:00,
2013-05-30 10:17:00,54.0,53.1,29.54,North,-999,-999.0,-999.0,97,-99.99,,,-99.99,meteohub,2013-05-30 09:17:00,
2013-05-30 10:22:00,54.5,53.6,29.54,North,-999,-999.0,-999.0,97,-99.99,,,-99.99,meteohub,2013-05-30 09:22:00,
2013-05-30 10:27:00,54.7,53.6,29.54,North,-999,-999.0,-999.0,96,-99.99,,,-99.99,meteohub,2013-05-30 09:27:00,
2013-05-30 10:32:00,55.0,53.6,29.54,North,-999,-999.0,-999.0,95,-99.99,,,-99.99,meteohub,2013-05-30 09:32:00,
2013-05-30 10:37:00,55.2,53.8,29.54,North,-999,-999.0,-999.0,95,-99.99,,,-99.99,meteohub,2013-05-30 09:37:00,
2013-05-30 10:42:00,56.7,55.2,29.54,North,-999,-999.0,-999.0,95,-99.99,,,-99.99,meteohub,2013-05-30 09:42:00,
2013-05-30 10:47:00,56.5,54.5,29.54,North,-999,-999.0,-999.0,93,-99.99,,,-99.99,meteohub,2013-05-30 09:47:00,
2013-05-30 10:52:00,56.5,54.0,29.54,North,-999,-999.0,-999.0,91,-99.99,,,-99.99,meteohub,2013-05-30 09:52:00,
2013-05-30 10:57:00,56.3,53.1,29.54,North,-999,-999.0,-999.0,89,-99.99,,,-99.99,meteohub,2013-05-30 09:57:00,
2013-05-30 11:02:00,57.0,53.8,29.54,North,-999,-999.0,-999.0,89,-99.99,,,-99.99,meteohub,2013-05-30 10:02:00,
2013-05-30 11:07:00,57.0,53.4,29.54,North,-999,-999.0,-999.0,88,-99.99,,,-99.99,meteohub,2013-05-30 10:07:00,
2013-05-30 11:12:00,57.9,54.3,29.54,North,-999,-999.0,-999.0,88,-99.99,,,-99.99,meteohub,2013-05-30 10:12:00,
2013-05-30 11:17:00,59.2,55.6,29.54,North,-999,-999.0,-999.0,88,-99.99,,,-99.99,meteohub,2013-05-30 10:17:00,
2013-05-30 11:22:00,59.2,54.3,29.54,North,-999,-999.0,-999.0,84,-99.99,,,-99.99,meteohub,2013-05-30 10:22:00,
2013-05-30 11:27:00,58.5,53.1,29.54,North,-999,-999.0,-999.0,82,-99.99,,,-99.99,meteohub,2013-05-30 10:27:00,
2013-05-30 11:32:00,58.8,53.6,29.54,North,-999,-999.0,-999.0,83,-99.99,,,-99.99,meteohub,2013-05-30 10:32:00,
2013-05-30 11:37:00,59.2,53.8,29.54,North,-999,-999.0,-999.0,82,-99.99,,,-99.99,meteohub,2013-05-30 10:37:00,
2013-05-30 11:42:00,58.6,52.9,29.54,North,-999,-999.0,-999.0,81,-99.99,,,-99.99,meteohub,2013-05-30 10:42:00,
2013-05-30 11:47:00,57.6,51.4,29.54,North,-999,-999.0,-999.0,80,-99.99,,,-99.99,meteohub,2013-05-30 10:47:00,
2013-05-30 11:52:00,57.6,52.2,29.57,North,-999,-999.0,-999.0,82,-99.99,,,-99.99,meteohub,2013-05-30 10:52:00,
2013-05-30 11:57:00,58.1,52.7,29.57,North,-999,-999.0,-999.0,82,-99.99,,,-99.99,meteohub,2013-05-30 10:57:00,
2013-05-30 12:02:00,58.6,53.2,29.57,North,-999,-999.0,-999.0,82,-99.99,,,-99.99,meteohub,2013-05-30 11:02:00,
2013-05-30 12:07:00,58.5,52.3,29.57,North,-999,-999.0,-999.0,80,-99.99,,,-99.99,meteohub,2013-05-30 11:07:00,
2013-05-30 12:12:00,59.0,53.2,29.57,North,-999,-999.0,-999.0,81,-99.99,,,-99.99,meteohub,2013-05-30 11:12:00,
2013-05-30 12:17:00,59.2,53.4,29.57,North,-999,-999.0,-999.0,81,-99.99,,,-99.99,meteohub,2013-05-30 11:17:00,
2013-05-30 12:22:00,59.2,52.3,29.57,North,-999,-999.0,-999.0,78,-99.99,,,-99.99,meteohub,2013-05-30 11:22:00,
2013-05-30 12:27:00,60.4,53.6,29.57,North,-999,-999.0,-999.0,78,-99.99,,,-99.99,meteohub,2013-05-30 11:27:00,
2013-05-30 12:32:00,60.4,52.5,29.57,North,-999,-999.0,-999.0,75,-99.99,,,-99.99,meteohub,2013-05-30 11:32:00,
2013-05-30 12:37:00,59.7,51.4,29.57,North,-999,-999.0,-999.0,74,-99.99,,,-99.99,meteohub,2013-05-30 11:37:00,
2013-05-30 12:42:00,60.3,52.3,29.57,North,-999,-999.0,-999.0,75,-99.99,,,-99.99,meteohub,2013-05-30 11:42:00,
2013-05-30 12:47:00,59.7,51.4,29.57,North,-999,-999.0,-999.0,74,-99.99,,,-99.99,meteohub,2013-05-30 11:47:00,
2013-05-30 12:52:00,59.7,51.8,29.57,North,-999,-999.0,-999.0,75,-99.99,,,-99.99,meteohub,2013-05-30 11:52:00,
2013-05-30 12:57:00,58.6,50.7,29.57,North,-999,-999.0,-999.0,75,-99.99,,,-99.99,meteohub,2013-05-30 11:57:00,
2013-05-30 13:02:00,58.8,50.9,29.57,North,-999,-999.0,-999.0,75,-99.99,,,-99.99,meteohub,2013-05-30 12:02:00,
2013-05-30 13:07:00,59.2,52.0,29.57,North,-999,-999.0,-999.0,77,-99.99,,,-99.99,meteohub,2013-05-30 12:07:00,
2013-05-30 13:12:00,59.7,52.5,29.57,North,-999,-999.0,-999.0,77,-99.99,,,-99.99,meteohub,2013-05-30 12:12:00,
2013-05-30 13:17:00,60.3,53.4,29.57,North,-999,-999.0,-999.0,78,-99.99,,,-99.99,meteohub,2013-05-30 12:17:00,
2013-05-30 13:22:00,60.4,52.9,29.57,North,-999,-999.0,-999.0,76,-99.99,,,-99.99,meteohub,2013-05-30 12:22:00,
2013-05-30 13:27:00,62.1,53.2,29.57,North,-999,-999.0,-999.0,73,-99.99,,,-99.99,meteohub,2013-05-30 12:27:00,
2013-05-30 13:32:00,62.2,52.3,29.57,North,-999,-999.0,-999.0,70,-99.99,,,-99.99,meteohub,2013-05-30 12:32:00,
2013-05-30 13:37:00,61.7,51.8,29.57,North,-999,-999.0,-999.0,70,-99.99,,,-99.99,meteohub,2013-05-30 12:37:00,
2013-05-30 13:42:00,60.8,50.9,29.57,North,-999,-999.0,-999.0,70,-99.99,,,-99.99,meteohub,2013-05-30 12:42:00,
2013-05-30 13:47:00,61.0,51.4,29.57,North,-999,-999.0,-999.0,71,-99.99,,,-99.99,meteohub,2013-05-30 12:47:00,
2013-05-30 13:52:00,62.2,53.1,29.57,North,-999,-999.0,-999.0,72,-99.99,,,-99.99,meteohub,2013-05-30 12:52:00,
2013-05-30 13:57:00,62.2,52.7,29.57,North,-999,-999.0,-999.0,71,-99.99,,,-99.99,meteohub,2013-05-30 12:57:00,
2013-05-30 14:02:00,61.9,51.6,29.57,North,-999,-999.0,-999.0,69,-99.99,,,-99.99,meteohub,2013-05-30 13:02:00,
2013-05-30 14:07:00,61.7,51.1,29.57,North,-999,-999.0,-999.0,68,-99.99,,,-99.99,meteohub,2013-05-30 13:07:00,
2013-05-30 14:12:00,62.6,52.0,29.57,North,-999,-999.0,-999.0,68,-99.99,,,-99.99,meteohub,2013-05-30 13:12:00,
2013-05-30 14:17:00,61.9,51.3,29.57,North,-999,-999.0,-999.0,68,-99.99,,,-99.99,meteohub,2013-05-30 13:17:00,
2013-05-30 14:22:00,62.8,52.5,29.60,North,-999,-999.0,-999.0,69,-99.99,,,-99.99,meteohub,2013-05-30 13:22:00,
2013-05-30 14:27:00,62.8,51.3,29.60,North,-999,-999.0,-999.0,66,-99.99,,,-99.99,meteohub,2013-05-30 13:27:00,
2013-05-30 14:32:00,64.2,52.7,29.60,North,-999,-999.0,-999.0,66,-99.99,,,-99.99,meteohub,2013-05-30 13:32:00,
2013-05-30 14:37:00,63.7,51.3,29.57,North,-999,-999.0,-999.0,64,-99.99,,,-99.99,meteohub,2013-05-30 13:37:00,
2013-05-30 14:42:00,64.6,51.8,29.57,North,-999,-999.0,-999.0,63,-99.99,,,-99.99,meteohub,2013-05-30 13:42:00,
2013-05-30 14:47:00,64.2,50.9,29.57,North,-999,-999.0,-999.0,62,-99.99,,,-99.99,meteohub,2013-05-30 13:47:00,
2013-05-30 14:52:00,63.5,50.7,29.57,North,-999,-999.0,-999.0,63,-99.99,,,-99.99,meteohub,2013-05-30 13:52:00,
2013-05-30 14:57:00,63.0,50.5,29.57,North,-999,-999.0,-999.0,64,-99.99,,,-99.99,meteohub,2013-05-30 13:57:00,
2013-05-30 15:02:00,63.5,51.1,29.57,North,-999,-999.0,-999.0,64,-99.99,,,-99.99,meteohub,2013-05-30 14:02:00,
2013-05-30 15:07:00,63.3,50.9,29.57,North,-999,-999.0,-999.0,64,-99.99,,,-99.99,meteohub,2013-05-30 14:07:00,
2013-05-30 15:12:00,63.3,51.4,29.57,North,-999,-999.0,-999.0,65,-99.99,,,-99.99,meteohub,2013-05-30 14:12:00,
2013-05-30 15:17:00,62.8,49.6,29.57,North,-999,-999.0,-999.0,62,-99.99,,,-99.99,meteohub,2013-05-30 14:17:00,
2013-05-30 15:22:00,62.6,50.2,29.60,North,-999,-999.0,-999.0,64,-99.99,,,-99.99,meteohub,2013-05-30 14:22:00,
2013-05-30 15:27:00,61.0,48.7,29.60,North,-999,-999.0,-999.0,64,-99.99,,,-99.99,meteohub,2013-05-30 14:27:00,
2013-05-30 15:32:00,60.8,49.5,29.60,North,-999,-999.0,-999.0,66,-99.99,,,-99.99,meteohub,2013-05-30 14:32:00,
2013-05-30 15:37:00,61.5,50.5,29.60,North,-999,-999.0,-999.0,67,-99.99,,,-99.99,meteohub,2013-05-30 14:37:00,
2013-05-30 15:42:00,61.7,50.2,29.60,North,-999,-999.0,-999.0,66,-99.99,,,-99.99,meteohub,2013-05-30 14:42:00,
2013-05-30 15:47:00,61.0,49.6,29.60,North,-999,-999.0,-999.0,66,-99.99,,,-99.99,meteohub,2013-05-30 14:47:00,
2013-05-30 15:52:00,61.2,50.2,29.60,North,-999,-999.0,-999.0,67,-99.99,,,-99.99,meteohub,2013-05-30 14:52:00,
2013-05-30 15:57:00,61.0,50.0,29.60,North,-999,-999.0,-999.0,67,-99.99,,,-99.99,meteohub,2013-05-30 14:57:00,
2013-05-30 16:02:00,60.1,49.5,29.60,North,-999,-999.0,-999.0,68,-99.99,,,-99.99,meteohub,2013-05-30 15:02:00,
2013-05-30 16:07:00,59.7,49.5,29.60,North,-999,-999.0,-999.0,69,-99.99,,,-99.99,meteohub,2013-05-30 15:07:00,
2013-05-30 16:12:00,59.2,49.5,29.60,North,-999,-999.0,-999.0,70,-99.99,,,-99.99,meteohub,2013-05-30 15:12:00,
2013-05-30 16:17:00,58.8,49.5,29.60,North,-999,-999.0,-999.0,71,-99.99,,,-99.99,meteohub,2013-05-30 15:17:00,
2013-05-30 16:22:00,58.6,49.6,29.60,North,-999,-999.0,-999.0,72,-99.99,,,-99.99,meteohub,2013-05-30 15:22:00,
2013-05-30 16:27:00,58.8,50.2,29.60,North,-999,-999.0,-999.0,73,-99.99,,,-99.99,meteohub,2013-05-30 15:27:00,
2013-05-30 16:32:00,58.3,50.0,29.60,North,-999,-999.0,-999.0,74,-99.99,,,-99.99,meteohub,2013-05-30 15:32:00,
2013-05-30 16:37:00,58.1,50.2,29.60,North,-999,-999.0,-999.0,75,-99.99,,,-99.99,meteohub,2013-05-30 15:37:00,
2013-05-30 16:42:00,57.6,50.4,29.60,North,-999,-999.0,-999.0,77,-99.99,,,-99.99,meteohub,2013-05-30 15:42:00,
2013-05-30 16:47:00,58.1,51.3,29.60,North,-999,-999.0,-999.0,78,-99.99,,,-99.99,meteohub,2013-05-30 15:47:00,
2013-05-30 16:52:00,58.8,52.0,29.60,North,-999,-999.0,-999.0,78,-99.99,,,-99.99,meteohub,2013-05-30 15:52:00,
2013-05-30 16:57:00,58.8,52.0,29.60,North,-999,-999.0,-999.0,78,-99.99,,,-99.99,meteohub,2013-05-30 15:57:00,
2013-05-30 17:02:00,59.0,51.8,29.60,North,-999,-999.0,-999.0,77,-99.99,,,-99.99,meteohub,2013-05-30 16:02:00,
2013-05-30 17:07:00,58.8,51.6,29.60,North,-999,-999.0,-999.0,77,-99.99,,,-99.99,meteohub,2013-05-30 16:07:00,
2013-05-30 17:12:00,58.6,51.1,29.60,North,-999,-999.0,-999.0,76,-99.99,,,-99.99,meteohub,2013-05-30 16:12:00,
2013-05-30 17:17:00,58.5,50.9,29.60,North,-999,-999.0,-999.0,76,-99.99,,,-99.99,meteohub,2013-05-30 16:17:00,
2013-05-30 17:22:00,58.8,51.6,29.60,North,-999,-999.0,-999.0,77,-99.99,,,-99.99,meteohub,2013-05-30 16:22:00,
2013-05-30 17:27:00,59.2,51.3,29.60,North,-999,-999.0,-999.0,75,-99.99,,,-99.99,meteohub,2013-05-30 16:27:00,
2013-05-30 17:32:00,59.2,50.9,29.60,North,-999,-999.0,-999.0,74,-99.99,,,-99.99,meteohub,2013-05-30 16:32:00,
2013-05-30 17:37:00,59.4,51.1,29.60,North,-999,-999.0,-999.0,74,-99.99,,,-99.99,meteohub,2013-05-30 16:37:00,
2013-05-30 17:42:00,59.2,50.5,29.60,North,-999,-999.0,-999.0,73,-99.99,,,-99.99,meteohub,2013-05-30 16:42:00,
2013-05-30 17:47:00,59.5,51.3,29.60,North,-999,-999.0,-999.0,74,-99.99,,,-99.99,meteohub,2013-05-30 16:47:00,
2013-05-30 17:52:00,59.5,50.9,29.60,North,-999,-999.0,-999.0,73,-99.99,,,-99.99,meteohub,2013-05-30 16:52:00,
2013-05-30 17:57:00,58.5,49.8,29.60,North,-999,-999.0,-999.0,73,-99.99,,,-99.99,meteohub,2013-05-30 16:57:00,
2013-05-30 18:02:00,58.1,49.8,29.60,North,-999,-999.0,-999.0,74,-99.99,,,-99.99,meteohub,2013-05-30 17:02:00,
2013-05-30 18:07:00,57.6,50.0,29.63,North,-999,-999.0,-999.0,76,-99.99,,,-99.99,meteohub,2013-05-30 17:07:00,
2013-05-30 18:12:00,57.2,50.4,29.63,North,-999,-999.0,-999.0,78,-99.99,,,-99.99,meteohub,2013-05-30 17:12:00,
2013-05-30 18:17:00,57.0,50.9,29.63,North,-999,-999.0,-999.0,80,-99.99,,,-99.99,meteohub,2013-05-30 17:17:00,
2013-05-30 18:22:00,57.2,51.4,29.63,North,-999,-999.0,-999.0,81,-99.99,,,-99.99,meteohub,2013-05-30 17:22:00,
2013-05-30 18:27:00,57.2,51.8,29.63,North,-999,-999.0,-999.0,82,-99.99,,,-99.99,meteohub,2013-05-30 17:27:00,
2013-05-30 18:32:00,57.0,52.0,29.63,North,-999,-999.0,-999.0,83,-99.99,,,-99.99,meteohub,2013-05-30 17:32:00,
2013-05-30 18:37:00,56.8,51.8,29.63,North,-999,-999.0,-999.0,83,-99.99,,,-99.99,meteohub,2013-05-30 17:37:00,
2013-05-30 18:42:00,56.7,51.8,29.63,North,-999,-999.0,-999.0,84,-99.99,,,-99.99,meteohub,2013-05-30 17:42:00,
2013-05-30 18:47:00,56.3,51.6,29.63,North,-999,-999.0,-999.0,84,-99.99,,,-99.99,meteohub,2013-05-30 17:47:00,
2013-05-30 18:52:00,56.5,52.0,29.63,North,-999,-999.0,-999.0,85,-99.99,,,-99.99,meteohub,2013-05-30 17:52:00,
2013-05-30 18:57:00,56.3,52.2,29.63,North,-999,-999.0,-999.0,86,-99.99,,,-99.99,meteohub,2013-05-30 17:57:00,
2013-05-30 19:02:00,56.3,52.2,29.63,North,-999,-999.0,-999.0,86,-99.99,,,-99.99,meteohub,2013-05-30 18:02:00,
2013-05-30 19:07:00,56.5,52.3,29.63,North,-999,-999.0,-999.0,86,-99.99,,,-99.99,meteohub,2013-05-30 18:07:00,
2013-05-30 19:12:00,56.7,52.5,29.63,North,-999,-999.0,-999.0,86,-99.99,,,-99.99,meteohub,2013-05-30 18:12:00,
2013-05-30 19:17:00,56.7,52.2,29.63,North,-999,-999.0,-999.0,85,-99.99,,,-99.99,meteohub,2013-05-30 18:17:00,
2013-05-30 19:22:00,56.7,52.2,29.63,North,-999,-999.0,-999.0,85,-99.99,,,-99.99,meteohub,2013-05-30 18:22:00,
2013-05-30 19:27:00,56.5,51.8,29.63,North,-999,-999.0,-999.0,84,-99.99,,,-99.99,meteohub,2013-05-30 18:27:00,
2013-05-30 19:32:00,56.3,51.6,29.63,North,-999,-999.0,-999.0,84,-99.99,,,-99.99,meteohub,2013-05-30 18:32:00,
2013-05-30 19:37:00,56.3,51.6,29.63,North,-999,-999.0,-999.0,84,-99.99,,,-99.99,meteohub,2013-05-30 18:37:00,
2013-05-30 19:42:00,56.1,51.4,29.63,North,-999,-999.0,-999.0,84,-99.99,,,-99.99,meteohub,2013-05-30 18:42:00,
2013-05-30 19:47:00,55.8,50.7,29.63,North,-999,-999.0,-999.0,83,-99.99,,,-99.99,meteohub,2013-05-30 18:47:00,
2013-05-30 19:52:00,55.4,50.4,29.66,North,-999,-999.0,-999.0,83,-99.99,,,-99.99,meteohub,2013-05-30 18:52:00,
2013-05-30 19:57:00,55.4,50.4,29.66,North,-999,-999.0,-999.0,83,-99.99,,,-99.99,meteohub,2013-05-30 18:57:00,
2013-05-30 20:02:00,55.2,50.5,29.66,North,-999,-999.0,-999.0,84,-99.99,,,-99.99,meteohub,2013-05-30 19:02:00,
2013-05-30 20:07:00,55.2,50.7,29.66,North,-999,-999.0,-999.0,85,-99.99,,,-99.99,meteohub,2013-05-30 19:07:00,
2013-05-30 20:12:00,55.0,50.5,29.66,North,-999,-999.0,-999.0,85,-99.99,,,-99.99,meteohub,2013-05-30 19:12:00,
2013-05-30 20:17:00,55.0,50.5,29.66,North,-999,-999.0,-999.0,85,-99.99,,,-99.99,meteohub,2013-05-30 19:17:00,
2013-05-30 20:22:00,54.9,50.7,29.66,North,-999,-999.0,-999.0,86,-99.99,,,-99.99,meteohub,2013-05-30 19:22:00,
2013-05-30 20:27:00,54.7,50.5,29.66,North,-999,-999.0,-999.0,86,-99.99,,,-99.99,meteohub,2013-05-30 19:27:00,
2013-05-30 20:32:00,54.7,50.9,29.66,North,-999,-999.0,-999.0,87,-99.99,,,-99.99,meteohub,2013-05-30 19:32:00,
2013-05-30 20:37:00,54.5,50.7,29.66,North,-999,-999.0,-999.0,87,-99.99,,,-99.99,meteohub,2013-05-30 19:37:00,
2013-05-30 20:42:00,54.3,50.5,29.66,North,-999,-999.0,-999.0,87,-99.99,,,-99.99,meteohub,2013-05-30 19:42:00,
2013-05-30 20:47:00,54.3,50.5,29.66,North,-999,-999.0,-999.0,87,-99.99,,,-99.99,meteohub,2013-05-30 19:47:00,
2013-05-30 20:52:00,54.3,50.9,29.66,North,-999,-999.0,-999.0,88,-99.99,,,-99.99,meteohub,2013-05-30 19:52:00,
2013-05-30 20:57:00,54.1,50.9,29.66,North,-999,-999.0,-999.0,89,-99.99,,,-99.99,meteohub,2013-05-30 19:57:00,
2013-05-30 21:02:00,54.1,50.9,29.66,North,-999,-999.0,-999.0,89,-99.99,,,-99.99,meteohub,2013-05-30 20:02:00,
2013-05-30 21:07:00,54.0,51.1,29.69,North,-999,-999.0,-999.0,90,-99.99,,,-99.99,meteohub,2013-05-30 20:07:00,
2013-05-30 21:12:00,54.0,51.1,29.69,North,-999,-999.0,-999.0,90,-99.99,,,-99.99,meteohub,2013-05-30 20:12:00,
2013-05-30 21:17:00,54.0,51.1,29.69,North,-999,-999.0,-999.0,90,-99.99,,,-99.99,meteohub,2013-05-30 20:17:00,
2013-05-30 21:22:00,54.0,51.1,29.69,North,-999,-999.0,-999.0,90,-99.99,,,-99.99,meteohub,2013-05-30 20:22:00,
2013-05-30 21:27:00,53.8,50.9,29.69,North,-999,-999.0,-999.0,90,-99.99,,,-99.99,meteohub,2013-05-30 20:27:00,
2013-05-30 21:32:00,53.8,50.9,29.69,North,-999,-999.0,-999.0,90,-99.99,,,-99.99,meteohub,2013-05-30 20:32:00,
2013-05-30 21:37:00,53.8,50.9,29.69,North,-999,-999.0,-999.0,90,-99.99,,,-99.99,meteohub,2013-05-30 20:37:00,
2013-05-30 21:42:00,53.8,50.9,29.69,North,-999,-999.0,-999.0,90,-99.99,,,-99.99,meteohub,2013-05-30 20:42:00,
2013-05-30 21:47:00,53.6,50.7,29.69,North,-999,-999.0,-999.0,90,-99.99,,,-99.99,meteohub,2013-05-30 20:47:00,
2013-05-30 21:52:00,53.6,50.7,29.69,North,-999,-999.0,-999.0,90,-99.99,,,-99.99,meteohub,2013-05-30 20:52:00,
2013-05-30 21:57:00,53.6,50.7,29.69,North,-999,-999.0,-999.0,90,-99.99,,,-99.99,meteohub,2013-05-30 20:57:00,
2013-05-30 22:02:00,53.6,51.1,29.69,North,-999,-999.0,-999.0,91,-99.99,,,-99.99,meteohub,2013-05-30 21:02:00,
2013-05-30 22:07:00,53.6,50.7,29.69,North,-999,-999.0,-999.0,90,-99.99,,,-99.99,meteohub,2013-05-30 21:07:00,
2013-05-30 22:12:00,53.4,50.9,29.69,North,-999,-999.0,-999.0,91,-99.99,,,-99.99,meteohub,2013-05-30 21:12:00,
2013-05-30 22:17:00,53.4,50.9,29.69,North,-999,-999.0,-999.0,91,-99.99,,,-99.99,meteohub,2013-05-30 21:17:00,
2013-05-30 22:22:00,53.4,50.9,29.72,North,-999,-999.0,-999.0,91,-99.99,,,-99.99,meteohub,2013-05-30 21:22:00,
2013-05-30 22:27:00,53.2,50.7,29.72,North,-999,-999.0,-999.0,91,-99.99,,,-99.99,meteohub,2013-05-30 21:27:00,
2013-05-30 22:32:00,53.2,50.4,29.72,North,-999,-999.0,-999.0,90,-99.99,,,-99.99,meteohub,2013-05-30 21:32:00,
2013-05-30 22:37:00,53.2,50.4,29.72,North,-999,-999.0,-999.0,90,-99.99,,,-99.99,meteohub,2013-05-30 21:37:00,
2013-05-30 22:42:00,53.2,50.0,29.72,North,-999,-999.0,-999.0,89,-99.99,,,-99.99,meteohub,2013-05-30 21:42:00,
2013-05-30 22:47:00,53.2,50.0,29.72,North,-999,-999.0,-999.0,89,-99.99,,,-99.99,meteohub,2013-05-30 21:47:00,
2013-05-30 22:52:00,53.2,50.0,29.72,North,-999,-999.0,-999.0,89,-99.99,,,-99.99,meteohub,2013-05-30 21:52:00,
2013-05-30 22:57:00,53.2,50.0,29.72,North,-999,-999.0,-999.0,89,-99.99,,,-99.99,meteohub,2013-05-30 21:57:00,
2013-05-30 23:02:00,53.1,50.2,29.72,North,-999,-999.0,-999.0,90,-99.99,,,-99.99,meteohub,2013-05-30 22:02:00,
2013-05-30 23:07:00,53.1,50.5,29.72,North,-999,-999.0,-999.0,91,-99.99,,,-99.99,meteohub,2013-05-30 22:07:00,
2013-05-30 23:12:00,53.1,50.5,29.72,North,-999,-999.0,-999.0,91,-99.99,,,-99.99,meteohub,2013-05-30 22:12:00,
2013-05-30 23:17:00,53.1,50.5,29.72,North,-999,-999.0,-999.0,91,-99.99,,,-99.99,meteohub,2013-05-30 22:17:00,
2013-05-30 23:22:00,53.1,50.5,29.72,North,-999,-999.0,-999.0,91,-99.99,,,-99.99,meteohub,2013-05-30 22:22:00,
2013-05-30 23:27:00,52.9,50.4,29.72,North,-999,-999.0,-999.0,91,-99.99,,,-99.99,meteohub,2013-05-30 22:27:00,
2013-05-30 23:32:00,52.9,50.4,29.72,North,-999,-999.0,-999.0,91,-99.99,,,-99.99,meteohub,2013-05-30 22:32:00,
2013-05-30 23:37:00,52.9,50.4,29.72,North,-999,-999.0,-999.0,91,-99.99,,,-99.99,meteohub,2013-05-30 22:37:00,
2013-05-30 23:42:00,52.9,50.4,29.72,North,-999,-999.0,-999.0,91,-99.99,,,-99.99,meteohub,2013-05-30 22:42:00,
2013-05-30 23:47:00,52.9,50.4,29.72,North,-999,-999.0,-999.0,91,-99.99,,,-99.99,meteohub,2013-05-30 22:47:00,
2013-05-30 23:52:00,52.9,50.4,29.72,North,-999,-999.0,-999.0,91,-99.99,,,-99.99,meteohub,2013-05-30 22:52:00,
2013-05-30 23:57:00,52.9,50.4,29.72,North,-999,-999.0,-999.0,91,-99.99,,,-99.99,meteohub,2013-05-30 22:57:00,